Heber, UT

11:33 AM MDT on May 20, 2018 (GMT -0600)
Heber

Weather History for K36U - June, 2013

Change the Weather History Date:

Monday, June 24, 2013

  Actual Average (KPVU) Record (KPVU)
Temperature  
Mean Temperature 63 °F -  
Max Temperature 82 °F 83 °F 96 °F (2015)
Min Temperature 44 °F 52 °F 48 °F (2003)
Degree Days  
Heating Degree Days 2    
Growing Degree Days 13 (Base 50)    
Moisture  
Dew Point 35 °F    
Average Humidity 41    
Maximum Humidity 81    
Minimum Humidity 15    
Precipitation  
Precipitation 0.00 in - - ()
Sea Level Pressure  
Sea Level Pressure 29.87 in    
Wind  
Wind Speed 5 mph (SSW)    
Max Wind Speed 22 mph    
Max Gust Speed 34 mph    
Visibility 10 miles    
Events Rain    
Averages and records for this station are not official NWS values.
T = Trace of Precipitation, MM = Missing Value Source: NWS Daily Summary

Daily Weather History Graph

Daily Weather History Graph

Search for Another Location

Airport or City:

Astronomy

Jun. 24, 2013 Rise Set
Actual Time 5:56 AM MDT 9:00 PM MDT
Civil Twilight 5:23 AM MDT 9:33 PM MDT
Nautical Twilight 4:40 AM MDT 10:15 PM MDT
Astronomical Twilight 3:51 AM MDT 11:05 PM MDT
Moon 10:04 PM MDT (6/24) 7:28 AM MDT (6/24)
Length of Visible Light 16h 10m
Length of Day
15h 03m
Full, 97% of the Moon is Illuminated
Jun 24
Full
Jun 29
Last Quarter
Jul 8
New
Jul 15
First Quarter
Jul 22
Full

Hourly Weather History & Observations

Time (MDT) Temp. Windchill Dew Point Humidity Pressure Visibility Wind Dir Wind Speed Gust Speed Precip Events Conditions
12:15 AM 53.6 °F - 35.6 °F 51% 29.83 in 10.0 mi Calm Calm - N/A   Clear
12:35 AM 55.4 °F - 37.4 °F 51% 29.83 in 10.0 mi Calm Calm - N/A   Clear
12:55 AM 51.8 °F - 39.2 °F 62% 29.83 in 10.0 mi South 3.5 mph - N/A   Clear
1:15 AM 51.8 °F - 39.2 °F 62% 29.83 in 10.0 mi Calm Calm - N/A   Clear
1:35 AM 51.8 °F - 35.6 °F 54% 29.82 in 10.0 mi Calm Calm - N/A   Clear
1:55 AM 51.8 °F - 37.4 °F 58% 29.83 in 10.0 mi Calm Calm - N/A   Clear
2:15 AM 51.8 °F - 37.4 °F 58% 29.83 in 10.0 mi WSW 4.6 mph - N/A   Clear
2:35 AM 50.0 °F - 37.4 °F 62% 29.83 in 10.0 mi Calm Calm - N/A   Clear
2:55 AM 50.0 °F - 39.2 °F 66% 29.83 in 10.0 mi Calm Calm - N/A   Clear
3:15 AM 48.2 °F - 39.2 °F 71% 29.83 in 10.0 mi East 4.6 mph - N/A   Clear
3:35 AM 50.0 °F - 39.2 °F 66% 29.83 in 10.0 mi SSE 3.5 mph - N/A   Clear
3:55 AM 48.2 °F - 39.2 °F 71% 29.83 in 10.0 mi Calm Calm - N/A   Clear
4:15 AM 48.2 °F - 39.2 °F 71% 29.83 in 10.0 mi Calm Calm - N/A   Clear
4:35 AM 46.4 °F - 41.0 °F 81% 29.83 in 10.0 mi Calm Calm - N/A   Clear
4:55 AM 44.6 °F - 37.4 °F 76% 29.83 in 10.0 mi Calm Calm - N/A   Clear
5:15 AM 44.6 °F - 37.4 °F 76% 29.83 in 10.0 mi Calm Calm - N/A   Clear
5:35 AM 46.4 °F 43.5 °F 37.4 °F 71% 29.83 in 10.0 mi East 5.8 mph - N/A   Clear
5:55 AM 50.0 °F - 35.6 °F 58% 29.84 in 10.0 mi Calm Calm - N/A   Clear
6:15 AM 46.4 °F - 37.4 °F 71% 29.84 in 10.0 mi Calm Calm - N/A   Clear
6:35 AM 46.4 °F - 37.4 °F 71% 29.84 in 10.0 mi Calm Calm - N/A   Clear
6:55 AM 50.0 °F - 37.4 °F 62% 29.84 in 10.0 mi West 3.5 mph - N/A   Clear
7:15 AM 51.8 °F - 39.2 °F 62% 29.84 in 10.0 mi Calm Calm - N/A   Clear
7:35 AM 53.6 °F - 37.4 °F 54% 29.84 in 10.0 mi Calm Calm - N/A   Clear
7:55 AM 55.4 °F - 35.6 °F 47% 29.84 in 10.0 mi Calm Calm - N/A   Clear
8:15 AM 60.8 °F - 37.4 °F 42% 29.85 in 10.0 mi Calm Calm - N/A   Clear
8:35 AM 62.6 °F - 35.6 °F 37% 29.85 in 10.0 mi Calm Calm - N/A   Clear
8:55 AM 66.2 °F - 33.8 °F 30% 29.85 in 10.0 mi Calm Calm - N/A   Clear
9:15 AM 68.0 °F - 37.4 °F 33% 29.85 in 10.0 mi Calm Calm - N/A   Clear
9:35 AM 73.4 °F - 32.0 °F 22% 29.85 in 10.0 mi WSW 10.4 mph - N/A   Clear
9:55 AM 77.0 °F - 26.6 °F 16% 29.86 in 10.0 mi WSW 11.5 mph 17.3 mph N/A   Clear
10:15 AM 77.0 °F - 28.4 °F 17% 29.85 in 10.0 mi WSW 13.8 mph 20.7 mph N/A   Clear
10:35 AM 77.0 °F - 28.4 °F 17% 29.85 in 10.0 mi WSW 20.7 mph 28.8 mph N/A   Clear
10:55 AM 77.0 °F - 28.4 °F 17% 29.85 in 10.0 mi WSW 18.4 mph 26.5 mph N/A   Clear
11:15 AM 78.8 °F - 28.4 °F 16% 29.86 in 10.0 mi WSW 19.6 mph 29.9 mph N/A   Clear
11:35 AM 78.8 °F - 30.2 °F 17% 29.86 in 10.0 mi SW 20.7 mph 26.5 mph N/A   Clear
11:55 AM 78.8 °F - 30.2 °F 17% 29.86 in 10.0 mi WSW 21.9 mph 28.8 mph N/A   Clear
12:15 PM 78.8 °F - 30.2 °F 17% 29.85 in 10.0 mi SW 18.4 mph 33.4 mph N/A   Clear
12:35 PM 77.0 °F - 28.4 °F 17% 29.85 in 10.0 mi SW 17.3 mph 24.2 mph N/A   Clear
12:55 PM 78.8 °F - 32.0 °F 18% 29.85 in 10.0 mi SW 15.0 mph 24.2 mph N/A   Clear
1:15 PM 80.6 °F - 30.2 °F 16% 29.84 in 10.0 mi SW 11.5 mph 21.9 mph N/A   Clear
1:35 PM 78.8 °F - 30.2 °F 17% 29.83 in 10.0 mi South 8.1 mph 16.1 mph N/A   Clear
1:55 PM 82.4 °F - 30.2 °F 15% 29.83 in 10.0 mi WSW 12.7 mph 19.6 mph N/A   Clear
2:15 PM 80.6 °F - 28.4 °F 15% 29.83 in 10.0 mi WSW 5.8 mph - N/A   Clear
2:35 PM 80.6 °F - 28.4 °F 15% 29.82 in 10.0 mi WSW 21.9 mph 31.1 mph N/A   Clear
2:55 PM 78.8 °F - 28.4 °F 16% 29.83 in 10.0 mi SW 20.7 mph 29.9 mph N/A   Clear
3:15 PM 80.6 °F - 28.4 °F 15% 29.83 in 10.0 mi SSW 12.7 mph 29.9 mph N/A   Clear
3:35 PM 80.6 °F - 28.4 °F 15% 29.83 in 10.0 mi SSW 12.7 mph 20.7 mph N/A   Clear
3:55 PM 78.8 °F - 28.4 °F 16% 29.85 in 10.0 mi SSW 16.1 mph 31.1 mph N/A   Clear
4:15 PM 77.0 °F - 32.0 °F 19% 29.85 in 10.0 mi SSE 5.8 mph 21.9 mph N/A   Clear
4:35 PM 75.2 °F - 30.2 °F 19% 29.84 in 10.0 mi SSW 9.2 mph 25.3 mph N/A   Clear
4:55 PM 73.4 °F - 32.0 °F 22% 29.85 in 10.0 mi WSW 17.3 mph 24.2 mph N/A   Clear
5:15 PM 73.4 °F - 32.0 °F 22% 29.86 in 10.0 mi SSW 16.1 mph 31.1 mph N/A   Clear
5:35 PM 71.6 °F - 32.0 °F 23% 29.87 in 10.0 mi SSW 21.9 mph 31.1 mph N/A   Clear
5:55 PM 71.6 °F - 32.0 °F 23% 29.89 in 10.0 mi SSW 20.7 mph 34.5 mph N/A Rain Light Rain
6:15 PM 69.8 °F - 32.0 °F 25% 29.90 in 10.0 mi WSW 11.5 mph 27.6 mph N/A   Clear
6:35 PM 69.8 °F - 32.0 °F 25% 29.90 in 10.0 mi SW 20.7 mph 28.8 mph N/A   Clear
6:55 PM 68.0 °F - 33.8 °F 28% 29.92 in 10.0 mi SW 19.6 mph 26.5 mph N/A   Clear
7:15 PM 64.4 °F - 35.6 °F 34% 29.94 in 10.0 mi SSW 16.1 mph 27.6 mph N/A Rain Light Rain
7:35 PM 64.4 °F - 35.6 °F 34% 29.95 in 10.0 mi SW 8.1 mph - N/A   Scattered Clouds
7:55 PM 64.4 °F - 35.6 °F 34% 29.95 in 10.0 mi Calm Calm - N/A   Scattered Clouds
8:15 PM 64.4 °F - 37.4 °F 37% 29.95 in 10.0 mi South 3.5 mph - N/A   Light Drizzle
8:35 PM 62.6 °F - 41.0 °F 45% 29.95 in 10.0 mi Calm Calm - N/A   Clear
8:55 PM 62.6 °F - 39.2 °F 42% 29.95 in 10.0 mi Calm Calm - N/A   Mostly Cloudy
9:15 PM 62.6 °F - 39.2 °F 42% 29.96 in 10.0 mi Calm Calm - N/A   Mostly Cloudy
9:35 PM 62.6 °F - 41.0 °F 45% 29.97 in 10.0 mi SSE 10.4 mph 20.7 mph N/A   Mostly Cloudy
9:55 PM 60.8 °F - 42.8 °F 52% 29.98 in 10.0 mi SSE 12.7 mph 18.4 mph N/A   Scattered Clouds
10:15 PM 59.0 °F - 44.6 °F 59% 29.98 in 10.0 mi SE 5.8 mph - N/A   Scattered Clouds
10:35 PM 59.0 °F - 44.6 °F 59% 29.99 in 10.0 mi SSE 4.6 mph - N/A   Light Drizzle
10:55 PM 59.0 °F - 44.6 °F 59% 29.99 in 10.0 mi SSE 6.9 mph - N/A   Drizzle
11:15 PM 57.2 °F - 46.4 °F 67% 29.99 in 10.0 mi Calm Calm - N/A   Mostly Cloudy
11:35 PM 55.4 °F - 46.4 °F 72% 29.99 in 10.0 mi Calm Calm - N/A   Scattered Clouds
11:55 PM 55.4 °F - 46.4 °F 72% 29.99 in 10.0 mi Calm Calm - N/A   Scattered Clouds